APRIZESAT 5 (37792 NORAD) Tracking and Keplerian Element Data

This shows tracking and keplerian element data for the satellite.

Feedback or suggestion? Click here.




ElementValue
Catalog37792
NameAPRIZESAT 5
Epoch Orbit37206
Epoch Day198.95162838
Epoch Year2018
RAAN0.2279
Inclination98.3895
Eccentricity0.0057329
Argument of Perigee231.5486
Mean Anonmoly128.0569
Mean Motion14.7524966
Decay Rate4.5E-07
L11 37792U 11044E 18198.95162838 .00000045 00000-0 14966-4 0 9996
L22 37792 98.3895 0.2279 0057329 231.5486 128.0569 14.75249660372060

Live tracking and technical data element details for APRIZESAT 5 (NORAD 37792). APRIZESAT 5 can be tracked NOW for your location showing map with azimuth and elevation plus other details from your city location.

Track the satellite on the map from your city or location and see movement details for azimuth, elevation, latitude, longitude, range, height, and movement on the map or in text.







IsCatalogInMostPopularTable: catalog: 37792, numindb: 39
Update: records affected: 1



GetName: 37792 APRIZESAT 5

Hit Count: updated at: Thu, 19 Jul 2018 03:50:43 GMT